Tracking 27405 objects as of 2-Jun-2023
HD Live streaming from Space Station
objects crossing your sky now

TEVEL 4

Track TEVEL 4 now!
10-day predictions
TEVEL 4 is classified as:


NORAD ID: 51063
Int'l Code: 2022-002CH
Perigee: 495.4 km
Apogee: 503.8 km
Inclination: 97.4 °
Period: 94.5 minutes
Semi major axis: 6870 km
RCS: Unknown
Launch date: January 13, 2022
Source: Israel (ISRA)
Launch site: AIR FORCE EASTERN TEST RANGE (AFETR)

Uplink (MHz): 145.970
Downlink (MHz): 436.400
Beacon (MHz):
Mode: 9600bps BPSK FM
Call sign: T4ATA
Status: Active

Your satellite tracking list
Your tracking list is empty




NASA's NSSDC Master Catalog

Two Line Element Set (TLE):
1 51063U 22002CH  23152.84790067  .00018825  00000-0  76863-3 0  9992
2 51063  97.4357 219.9394 0006122 283.5696  76.4859 15.24430935 76423
Source of the keplerian elements: AMSAT